Location: Greenhawk Observatory
(37.3417°N, 122.0298°W)
Time: 22:26:41
(UTC-08:00)

Envisat - Visible Passes

Search period start: 15 February 2019 00:00
Search period end: 25 February 2019 00:00
Orbit: 764 x 766 km, 98.2° (Epoch: 15 February)

Date Brightness Start Highest point End Pass type
(mag) Time Alt. Az. Time Alt. Az. Time Alt. Az.
15 Feb 3.1 18:57:05 10° S 19:02:09 81° WSW 19:07:16 10° NNW visible
16 Feb 3.3 18:20:44 10° SE 18:25:31 44° ENE 18:30:19 10° N visible
16 Feb 5.6 20:01:08 10° SW 20:04:42 19° W 20:08:17 10° NW visible
17 Feb 4.2 19:22:54 10° S 19:27:44 44° W 19:32:35 10° NNW visible
18 Feb 2.9 18:45:54 10° SSE 18:50:57 80° ENE 18:56:02 10° N visible
19 Feb 3.6 18:09:49 10° SE 18:14:22 34° ENE 18:18:56 10° N visible
19 Feb 5.3 19:49:19 10° SSW 19:53:24 24° W 19:57:31 10° NW visible
20 Feb 6.4 06:22:15 10° ENE 06:24:47 14° E 06:27:17 10° ESE visible
20 Feb 3.7 19:11:31 10° S 19:16:29 57° W 19:21:30 10° NNW visible
21 Feb 3.0 18:34:47 10° SSE 18:39:46 62° ENE 18:44:48 10° N visible
21 Feb 6.1 20:16:46 10° WSW 20:19:10 13° W 20:21:35 10° WNW visible
22 Feb 4.9 19:37:39 10° SSW 19:42:07 31° W 19:46:37 10° NW visible
23 Feb 6.8 06:12:50 10° E 06:13:27 10° E 06:14:02 10° E visible
23 Feb 3.2 19:00:13 10° S 19:05:16 74° WSW 19:10:22 10° NNW visible
24 Feb 3.2 18:23:45 10° SE 18:28:36 48° ENE 18:33:29 10° N visible
24 Feb 5.8 20:04:33 10° SW 20:07:51 17° W 20:11:10 10° NW visible
